Rechercher aéroport 
image banner adimage banner adimage banner ad
image banner ad

30PN - Pittsburgh Children's Hospital

Situé à Pittsburgh, United States

ICAO - 30PN, IATA -

Données fournies par Airmate  

Information générale

Coordonnées: N40°27'60" W79°57'10"
Élévation : 1088 feet MSL.
Variation magnétique : -09° East
Voir autres Aéroports à Pennsylvania

Données opérationnelles

Special qualification required
Heure actuelle UTC:
Heure actuelle locale:
Météo à : KAGC - Allegheny County ( 13 km )
METAR: KAGC 210153Z 15008KT 10SM FEW075 22/17 A3019 RMK AO2 SLP219 T02170167
TAF: KAGC 202341Z 2100/2124 13009KT P6SM VCSH BKN200 FM210100 14006KT P6SM OVC200 FM211200 13005KT P6SM BKN100 FM212000 15006KT P6SM VCSH BKN050
Voir NOTAMs / SUP AIP / TFR affectant cet aéroport [VIEW]
Fréquences de communication: [VIEW]

Pistes:

Coordonnées de l'aéroport

Adresse: Pittsburgh United States

Vue satellite de 30PN